Latest Coastal Weather Observations for Browse Island

IDW60701

Issued at 12:45 am WST Sunday 26 October 2014 (issued every 10 minutes, with the page automatically refreshed every 10 minutes)

About coastal observations | Map of coastal stations | Coastal observations for WA | Marine services | Other Formats
Station Details ID: 200784 Name: BROWSE ISLAND Lat: -14.11 Lon: 123.55 Height: 3.7 m
Data from the previous 72 hours. | See also: Recent months for locations in Western Australia
Date/Time
WST
Temp

°C
Wind Pressure Rain
since 9am
mm
Weather Cloud Vis
km
Sea
Height
m
Swell
Dir
 
Speed
knots
Gust
knots
hPa Trend Height
m
Period
s
Dir
26/12:30am 28.0 NW 11 12 1012.0 - - - - - - - - -
26/12:00am 28.5 WNW 10 - 1012.4 - - - - - - - - -
 
Date/Time
WST
Temp

°C
Wind Pressure Rain
since 9am
mm
Weather Cloud Vis
km
Sea
Height
m
Swell
Dir
 
Speed
knots
Gust
knots
hPa Trend Height
m
Period
s
Dir
25/11:30pm 29.0 NW 11 - 1012.0 - - - - - - - - -
25/11:00pm 28.6 WNW 11 - 1012.8 - - - - - - - - -
25/10:30pm 29.0 WNW 9 - 1013.0 - - - - - - - - -
25/10:00pm 28.7 WNW 10 - 1013.8 - - - - - - - - -
25/09:30pm 29.0 WNW 8 - 1014.0 - - - - - - - - -
25/09:00pm 28.8 WNW 8 - 1014.1 - - - - - - - - -
25/08:30pm 29.0 WNW 9 - 1013.0 - - - - - - - - -
25/08:00pm 28.9 WNW 8 - 1013.6 - - - - - - - - -
25/07:30pm 29.0 WNW 8 - 1013.0 - - - - - - - - -
25/07:00pm 29.0 WNW 6 - 1013.6 - - - - - - - - -
25/06:30pm 29.0 WNW 7 - 1013.0 - - - - - - - - -
25/06:00pm 29.1 W 7 - 1013.1 - - - - - - - - -
25/05:30pm 29.0 W 8 - 1012.0 - - - - - - - - -
25/05:00pm 29.3 W 8 - 1012.5 - - - - - - - - -
25/04:30pm 29.0 W 8 - 1012.0 - - - - - - - - -
25/04:00pm 29.3 W 9 - 1011.8 - - - - - - - - -
25/03:30pm 30.0 WNW 8 - 1012.0 - - - - - - - - -
25/03:00pm 30.0 WNW 6 - 1012.2 - - - - - - - - -
25/02:30pm 30.0 W 6 - 1012.0 - - - - - - - - -
25/02:00pm 29.6 W 6 - 1012.7 - - - - - - - - -
25/01:30pm 30.0 W 6 - 1012.0 - - - - - - - - -
25/01:00pm 30.1 WSW 6 - 1013.0 - - - - - - - - -
25/12:30pm 29.0 SW 6 - 1013.0 - - - - - - - - -
25/12:00pm 29.1 SSW 6 - 1014.0 - - - - - - - - -
25/11:30am 29.0 SW 6 - 1014.0 - - - - - - - - -
25/11:00am 29.0 SW 5 - 1014.5 - - - - - - - - -
25/10:30am 30.0 SW 4 - 1015.0 - - - - - - - - -
25/10:00am 28.8 WSW 5 - 1015.0 - - - - - - - - -
25/09:30am 29.0 WSW 5 - 1015.0 - - - - - - - - -
25/09:00am 28.9 WSW 5 - 1015.2 - - - - - - - - -
25/08:30am 29.0 WSW 3 - 1015.0 - - - - - - - - -
25/08:00am 28.5 SW 5 - 1015.4 - - - - - - - - -
25/07:30am 28.0 WSW 4 - 1015.0 - - - - - - - - -
25/07:00am 28.2 W 3 - 1014.8 - - - - - - - - -
25/06:30am 28.0 WSW 4 - 1014.0 - - - - - - - - -
25/06:00am 27.9 WSW 4 - 1014.1 - - - - - - - - -
25/05:30am 28.0 W 5 - 1013.0 - - - - - - - - -
25/05:00am 28.2 WSW 5 - 1013.6 - - - - - - - - -
25/04:30am 28.0 WSW 5 - 1013.0 - - - - - - - - -
25/04:00am 28.1 WSW 6 - 1012.9 - - - - - - - - -
25/03:30am 28.0 WSW 5 - 1012.0 - - - - - - - - -
25/03:00am 28.0 WSW 6 - 1012.5 - - - - - - - - -
25/02:30am 28.0 SW 3 - 1012.0 - - - - - - - - -
25/02:00am 28.1 W 3 - 1012.4 - - - - - - - - -
25/01:30am 28.0 WNW 4 - 1012.0 - - - - - - - - -
25/01:00am 28.1 W 3 - 1012.5 - - - - - - - - -
25/12:30am 28.0 WNW 1 - 1012.0 - - - - - - - - -
25/12:00am 28.1 CALM 0 - 1013.1 - - - - - - - - -
 
Date/Time
WST
Temp

°C
Wind Pressure Rain
since 9am
mm
Weather Cloud Vis
km
Sea
Height
m
Swell
Dir
 
Speed
knots
Gust
knots
hPa Trend Height
m
Period
s
Dir
24/11:30pm 28.0 WNW 2 - 1013.0 - - - - - - - - -
24/11:00pm 28.4 WNW 4 - 1013.4 - - - - - - - - -
24/10:30pm 28.0 NW 5 - 1013.0 - - - - - - - - -
24/10:00pm 28.5 W 6 - 1013.5 - - - - - - - - -
24/09:30pm 29.0 WNW 5 - 1013.0 - - - - - - - - -
24/09:00pm 28.5 W 4 - 1013.3 - - - - - - - - -
24/08:30pm 29.0 WNW 5 - 1013.0 - - - - - - - - -
24/08:00pm 28.6 WNW 6 - 1012.6 - - - - - - - - -
24/07:30pm 29.0 WNW 6 - 1012.0 - - - - - - - - -
24/07:00pm 28.5 WNW 7 - 1012.0 - - - - - - - - -
24/06:30pm 29.0 NW 8 - 1011.0 - - - - - - - - -
24/06:00pm 28.5 NNW 8 - 1011.4 - - - - - - - - -
24/05:30pm 29.0 NNW 10 - 1011.0 - - - - - - - - -
24/05:00pm 28.8 NNW 9 - 1010.9 - - - - - - - - -
24/04:30pm 29.0 NNW 8 - 1011.0 - - - - - - - - -
24/04:00pm 29.8 NW 6 - 1010.7 - - - - - - - - -
24/03:30pm 30.0 NW 6 - 1011.0 - - - - - - - - -
24/03:00pm 29.8 NW 6 - 1011.1 - - - - - - - - -
24/02:30pm 30.0 NNW 6 - 1011.0 - - - - - - - - -
24/02:00pm 29.7 NNW 6 - 1011.5 - - - - - - - - -
24/01:30pm 30.0 NNW 6 - 1011.0 - - - - - - - - -
24/01:00pm 30.3 NW 5 - 1012.2 - - - - - - - - -
24/12:30pm 30.0 N 5 - 1012.0 - - - - - - - - -
24/12:00pm 30.1 NNW 5 - 1012.7 - - - - - - - - -
24/11:30am 30.0 N 6 - 1013.0 - - - - - - - - -
24/11:00am 30.1 N 6 - 1013.1 - - - - - - - - -
24/10:30am 29.0 N 6 - 1013.0 - - - - - - - - -
24/10:00am 29.3 NNW 7 - 1013.2 - - - - - - - - -
24/09:30am 29.0 N 6 - 1013.0 - - - - - - - - -
24/09:00am 29.3 N 6 - 1013.5 - - - - - - - - -
24/08:30am 29.0 N 7 - 1013.0 - - - - - - - - -
24/08:00am 28.5 N 8 - 1013.5 - - - - - - - - -
24/07:30am 28.0 N 9 - 1013.0 - - - - - - - - -
24/07:00am 27.9 N 8 - 1012.9 - - - - - - - - -
24/06:30am 28.0 NNW 8 - 1012.0 - - - - - - - - -
24/06:00am 27.5 NNW 7 - 1012.4 - - - - - - - - -
24/05:30am 28.0 NNW 7 - 1012.0 - - - - - - - - -
24/05:00am 27.5 NNW 7 - 1012.0 - - - - - - - - -
24/04:30am 28.0 NNW 6 - 1011.0 - - - - - - - - -
24/04:00am 27.6 NNW 7 - 1011.5 - - - - - - - - -
24/03:30am 28.0 NNW 5 - 1011.0 - - - - - - - - -
24/03:00am 27.7 NW 4 - 1011.4 - - - - - - - - -
24/02:30am 28.0 NW 5 - 1011.0 - - - - - - - - -
24/02:00am 27.8 NW 4 - 1011.5 - - - - - - - - -
24/01:30am 28.0 N 4 - 1011.0 - - - - - - - - -
24/01:00am 27.8 NW 5 - 1011.9 - - - - - - - - -
24/12:30am 28.0 NW 4 - 1012.0 - - - - - - - - -
24/12:00am 27.9 NNW 5 - 1012.5 - - - - - - - - -
 
Date/Time
WST
Temp

°C
Wind Pressure Rain
since 9am
mm
Weather Cloud Vis
km
Sea
Height
m
Swell
Dir
 
Speed
knots
Gust
knots
hPa Trend Height
m
Period
s
Dir
23/11:30pm 28.0 NNW 6 - 1012.0 - - - - - - - - -
23/11:00pm 28.1 NNW 5 - 1013.1 - - - - - - - - -
23/10:30pm 28.0 WNW 7 - 1013.0 - - - - - - - - -
23/10:00pm 28.3 WNW 6 - 1013.5 - - - - - - - - -
23/09:30pm 28.0 W 5 - 1013.0 - - - - - - - - -
23/09:00pm 28.4 WNW 5 - 1013.5 - - - - - - - - -
23/08:30pm 28.0 W 7 - 1013.0 - - - - - - - - -
23/08:00pm 28.6 WNW 8 - 1012.9 - - - - - - - - -
23/07:30pm 29.0 WNW 7 - 1012.0 - - - - - - - - -
23/07:00pm 28.6 WNW 6 - 1012.6 - - - - - - - - -
23/06:30pm 29.0 W 7 - 1012.0 - - - - - - - - -
23/06:00pm 28.7 W 7 - 1011.8 - - - - - - - - -
23/05:30pm 29.0 W 8 - 1011.0 - - - - - - - - -
23/05:00pm 28.8 WNW 7 - 1011.0 - - - - - - - - -
23/04:30pm 29.0 NW 7 - 1011.0 - - - - - - - - -
23/04:00pm 29.2 NNW 7 - 1010.8 - - - - - - - - -
23/03:30pm 29.0 NNW 7 - 1010.0 - - - - - - - - -
23/03:00pm 29.7 NNW 6 - 1011.0 - - - - - - - - -
23/02:30pm 30.0 NNW 6 - 1011.0 - - - - - - - - -
23/02:00pm 29.6 NNW 6 - 1011.4 - - - - - - - - -
23/01:30pm 30.0 NNW 7 - 1011.0 - - - - - - - - -
23/01:00pm 29.7 NNW 7 - 1011.9 - - - - - - - - -
23/12:30pm 29.0 NNW 8 - 1012.0 - - - - - - - - -
23/12:00pm 29.1 NNW 9 - 1012.6 - - - - - - - - -
23/11:30am 29.0 NNW 10 - 1013.0 - - - - - - - - -
23/11:00am 29.6 NNW 9 - 1013.2 - - - - - - - - -
23/10:30am 29.0 NNW 8 - 1013.0 - - - - - - - - -
23/10:00am 29.4 NW 8 - 1013.3 - - - - - - - - -
23/09:30am 29.0 NW 8 - 1013.0 - - - - - - - - -
23/09:00am 28.2 NW 8 - 1013.5 - - - - - - - - -
23/08:30am 28.0 NNW 7 - 1013.0 - - - - - - - - -
23/08:00am 28.0 NNW 7 - 1013.8 - - - - - - - - -
23/07:30am 28.0 NNW 8 - 1013.0 - - - - - - - - -
23/07:00am 27.7 NNW 8 - 1013.3 - - - - - - - - -
23/06:30am 28.0 NNW 8 - 1012.0 - - - - - - - - -
23/06:00am 27.3 NW 8 - 1012.4 - - - - - - - - -
23/05:30am 27.0 NNW 9 - 1012.0 - - - - - - - - -
23/05:00am 27.4 NW 8 - 1011.9 - - - - - - - - -
23/04:30am 27.0 NW 9 - 1011.0 - - - - - - - - -
23/04:00am 27.5 NW 9 - 1011.2 - - - - - - - - -
23/03:30am 28.0 NW 8 - 1011.0 - - - - - - - - -
23/03:00am 27.4 NW 8 - 1011.1 - - - - - - - - -
23/02:30am 28.0 NW 7 - 1011.0 - - - - - - - - -
23/02:00am 27.5 NW 7 - 1011.3 - - - - - - - - -
23/01:30am 28.0 NW 9 - 1011.0 - - - - - - - - -
23/01:00am 27.7 NW 7 - 1011.8 - - - - - - - - -

Other Formats:

Comma delimited format used in spreadsheet applications
http://www.bom.gov.au/fwo/IDW60701/IDW60701.94103.axf

JavaScript Object Notation format (JSON) in row-major order
http://www.bom.gov.au/fwo/IDW60701/IDW60701.94103.json